TimeEDT,TemperatureF,Dew PointF,Humidity,Sea Level PressureIn,VisibilityMPH,Wind Direction,Wind SpeedMPH,Gust SpeedMPH,PrecipitationIn,Events,Conditions,WindDirDegrees,DateUTC
12:53 AM,30.0,17.1,59,29.71,10.0,West,6.9,-,N/A,,Mostly Cloudy,260,2013-03-23 04:53:00
1:53 AM,30.0,17.1,59,29.71,10.0,West,6.9,-,N/A,,Clear,270,2013-03-23 05:53:00
2:53 AM,28.9,17.1,61,29.70,10.0,West,12.7,21.9,N/A,,Clear,270,2013-03-23 06:53:00
3:53 AM,28.0,17.1,63,29.70,10.0,West,5.8,-,N/A,,Clear,280,2013-03-23 07:53:00
4:53 AM,28.0,17.1,63,29.68,10.0,West,11.5,-,N/A,,Clear,260,2013-03-23 08:53:00
5:53 AM,28.0,18.0,66,29.69,10.0,WSW,9.2,-,N/A,,Clear,250,2013-03-23 09:53:00
6:53 AM,28.0,19.0,69,29.68,10.0,WSW,11.5,-,N/A,,Clear,250,2013-03-23 10:53:00
7:53 AM,30.9,19.0,61,29.68,10.0,West,11.5,20.7,N/A,,Clear,270,2013-03-23 11:53:00
8:53 AM,34.0,19.9,56,29.67,10.0,West,17.3,23.0,N/A,,Clear,270,2013-03-23 12:53:00
9:53 AM,36.0,19.0,50,29.66,10.0,West,20.7,27.6,N/A,,Partly Cloudy,280,2013-03-23 13:53:00
10:53 AM,37.0,16.0,42,29.65,10.0,WNW,12.7,29.9,N/A,,Mostly Cloudy,290,2013-03-23 14:53:00
11:53 AM,37.9,16.0,41,29.63,10.0,West,20.7,29.9,N/A,,Overcast,270,2013-03-23 15:53:00
12:53 PM,39.0,15.1,38,29.63,10.0,WNW,19.6,29.9,N/A,,Mostly Cloudy,290,2013-03-23 16:53:00
1:53 PM,39.9,15.1,36,29.62,10.0,WNW,16.1,31.1,N/A,,Overcast,290,2013-03-23 17:53:00
2:53 PM,39.9,15.1,36,29.61,10.0,West,18.4,31.1,N/A,,Mostly Cloudy,280,2013-03-23 18:53:00
3:53 PM,42.1,16.0,35,29.60,10.0,WNW,16.1,33.4,N/A,,Mostly Cloudy,290,2013-03-23 19:53:00
4:53 PM,42.1,16.0,35,29.62,10.0,WNW,17.3,28.8,N/A,,Overcast,290,2013-03-23 20:53:00
5:53 PM,41.0,15.1,35,29.64,10.0,NW,17.3,25.3,N/A,,Partly Cloudy,310,2013-03-23 21:53:00
6:53 PM,39.0,16.0,39,29.67,10.0,NW,19.6,26.5,N/A,,Scattered Clouds,320,2013-03-23 22:53:00
7:53 PM,37.9,16.0,41,29.71,10.0,NW,10.4,18.4,N/A,,Mostly Cloudy,310,2013-03-23 23:53:00
8:53 PM,37.9,17.1,43,29.74,10.0,NW,15.0,29.9,N/A,,Overcast,320,2013-03-24 00:53:00
9:53 PM,37.0,17.1,44,29.74,10.0,NW,13.8,-,N/A,,Clear,310,2013-03-24 01:53:00
10:53 PM,36.0,18.0,48,29.74,10.0,West,6.9,-,N/A,,Clear,280,2013-03-24 02:53:00
11:53 PM,34.0,18.0,52,29.73,10.0,West,15.0,20.7,N/A,,Clear,270,2013-03-24 03:53:00